Showing default

COSMOS 2602, 67676

Orbit data source: Space-Track

COSMOS 2602, 67676 is a payload satellite owned by VVKO VKS (CIS) in SSO that was launched on Thu, 05 Feb 2026 UTC via a SOYUZ-2-1B launch vehicle from the Plesetsk Missile And Space Complex (PKMTR). Payload-class satellites include a variety of spacecraft equipped with specific instruments for various scientific and technological missions. These include communications satellites like Starlink; space stations such as the ISS; scientific satellites like the Hubble; Earth observation satellites from companies like Planet Labs, Umbra, and HawkEye 360; GPS; miniature CubeSats for education and research; and military/defense satellites.

Loading next visibility...
Identifier
67676, 2026-023C
Orbit
SSO
Country
Flag of CISCIS
Related business
Manufacturer
Unknown (RU)
Mission
Operational Defense Imaging
Bus & Motor
UNK, Unknown motor
Mass
~500 kg wet, ~500 kg dry
Launch date (UTC)
2026-02-05 (4 months ago)
Launch vehicle
SOYUZ-2-1B
Launch site
Plesetsk Missile And Space Complex (PKMTR)
Object type
Payload
Rocket body
Debris
Shape & HBR
Cyl + 2 Pan, 1.1 m
Radar Cross Section
3.727 m², Medium (>0.1 m² and < 1m²)

Expand to show TLE details & history
Last TLE update: 1 day ago

TLE from 1 day ago
0 COSMOS 2602
1 67676U 26023C   26170.67557409  .00008829  00000-0  35148-3 0  9995
2 67676  96.6283 231.9656 0019639 118.5465 241.7755 15.25259479 20550
Epoch: 2026-06-19T16:12Z
TLE epoch observation values (Epoch: 2026-06-19T16:12:49.601Z)
Latitude
-0.00001°
Longitude
80.85779°
Altitude
499.526 km
Speed
7.611 km/s
True Right ascension
15h 27m 51s
True Declination
0° 00' 00"
Sunlit
Object was in full shadow at epoch
Visualization orbit readout
Latitude
Unknown
Longitude
Unknown
Altitude
Unknown
Speed
Unknown
Apparent Right ascension
Unknown
Apparent Declination
Unknown
Sunlit
N/A
Visualization observer readout
Local Sidereal Time
10:19:35
Azimuth
Unknown
Elevation
Unknown
Doppler factor
Unknown
Orbital elements
Apogee altitude
500.416 km
Perigee altitude
473.451 km
Semi-major axis
6,865.071 km
Eccentricity
0.00196
Inclination
96.6283°
RAAN
231.9656°
Arg. of periapsis
118.5465°
True anomaly
241.57744°
Mean anomaly
241.7755°
Eccentric anomaly
241.67645°
Mean motion
3.81571 °/min
Orbital period
94.35 mins
BSTAR
0.00035148
Loading maneuver chart data...
Computing Atmospheric mass density...
Loading historical data...
Loading historical data...
Loading historical data...
Loading historical data...
Loading historical data...
Loading historical data...
Loading historical data...

Documentation

Showing up to 5 results
|